Date,TemperatureHighF,TemperatureAvgF,TemperatureLowF,DewpointHighF,DewpointAvgF,DewpointLowF,HumidityHigh,HumidityAvg,HumidityLow,PressureMaxIn,PressureMinIn,WindSpeedMaxMPH,WindSpeedAvgMPH,GustSpeedMaxMPH,PrecipitationSumIn
2013-1-1,22.6,15.8,12.0,11.9,9.4,6.6,84,76,62,30.39,30.25,3,0,8,0.00
2013-1-2,24.3,20.4,15.4,19.3,16.7,11.4,90,85,75,30.33,30.22,2,0,8,0.00
2013-1-3,27.9,23.2,19.2,23.1,19.1,14.7,90,84,77,30.30,30.17,4,1,11,0.00
2013-1-4,31.8,23.5,17.6,24.4,19.4,14.5,92,84,71,30.34,30.11,4,1,12,0.00
2013-1-5,38.7,25.8,16.3,32.3,22.8,15.6,99,89,66,30.39,30.04,4,0,8,0.02
2013-1-6,32.2,25.9,16.3,29.0,21.6,14.1,96,84,66,30.43,30.03,4,0,11,0.00
2013-1-7,37.6,28.8,17.2,27.6,21.3,12.9,96,75,55,30.43,30.10,6,2,12,0.00
2013-1-8,42.3,34.0,24.1,36.2,30.7,23.1,99,89,67,30.32,30.04,5,1,12,0.11
2013-1-9,41.7,34.9,25.5,33.2,30.1,23.6,93,83,67,30.63,30.01,4,1,11,0.02
2013-1-10,42.3,32.7,23.4,35.9,29.6,22.0,99,89,68,30.70,30.17,3,0,6,0.13
2013-1-11,43.9,39.7,35.6,43.6,39.5,35.3,99,99,99,30.17,29.78,3,1,8,0.25
2013-1-12,46.9,37.2,25.7,45.1,33.8,20.2,99,87,76,30.18,29.75,5,1,11,0.00
2013-1-13,26.2,23.5,16.9,20.4,17.9,12.2,88,79,72,30.30,30.07,3,0,9,0.00
2013-1-14,25.0,16.3,10.8,13.7,10.2,7.3,88,77,61,30.58,30.30,4,1,10,0.00
2013-1-15,31.8,20.5,9.3,19.9,13.1,6.2,89,73,57,30.60,30.19,4,1,10,0.00
2013-1-16,30.0,26.3,22.1,27.6,20.1,13.8,92,77,64,30.24,29.85,4,1,11,0.00
2013-1-17,23.0,15.4,9.0,15.7,4.9,-0.5,78,63,41,30.57,30.24,4,1,8,0.00
2013-1-18,33.8,19.8,6.8,27.2,15.4,1.0,96,83,69,30.58,29.94,4,0,10,0.00
2013-1-19,40.3,28.8,15.3,36.0,27.0,12.0,99,93,83,30.03,29.68,4,1,11,0.02
2013-1-20,18.3,10.4,3.4,10.2,1.5,-3.9,81,67,49,30.39,29.94,5,1,13,0.00
2013-1-21,7.0,-1.1,-9.0,-3.6,-10.5,-18.8,77,63,46,30.40,30.24,3,1,11,0.00
2013-1-22,7.9,-1.9,-9.8,-6.9,-11.3,-16.7,73,64,44,30.48,30.38,3,1,9,0.00
2013-1-23,11.7,4.6,-3.6,7.8,-1.5,-9.6,88,75,63,30.57,30.25,4,1,11,0.00
2013-1-24,16.2,8.4,0.9,7.2,0.7,-3.4,82,71,54,30.85,30.56,3,0,9,0.00
2013-1-25,21.9,14.4,4.1,18.2,12.0,2.4,94,90,83,30.56,30.12,1,0,4,0.00
2013-1-26,29.3,15.8,4.1,17.4,10.9,2.1,93,82,58,30.57,30.31,1,0,4,0.00
2013-1-27,37.4,30.2,21.0,32.1,27.3,17.2,99,89,72,30.56,30.12,4,0,9,0.02
2013-1-28,36.5,33.5,31.5,35.7,33.1,31.0,99,99,95,30.18,29.99,2,0,7,0.08
2013-1-29,44.6,36.6,32.7,44.3,36.3,32.3,99,99,99,30.09,29.71,4,0,8,0.28
2013-1-30,32.7,24.7,13.6,32.5,24.4,13.2,99,99,98,29.75,29.48,2,0,4,0.01
2013-1-31,20.5,12.7,5.2,16.9,10.4,2.5,98,90,74,30.19,29.64,0,0,0,0.00
2013-2-1,14.5,3.8,-0.9,2.8,-2.1,-6.5,89,76,57,30.38,30.19,0,0,0,0.00
2013-2-2,21.4,6.1,-2.7,4.9,-1.8,-7.4,81,70,47,30.31,30.17,0,0,0,0.00
2013-2-3,25.5,9.3,-0.4,10.8,3.1,-3.8,90,76,52,30.22,30.07,0,0,0,0.00
2013-2-4,24.3,8.3,0.5,6.6,1.2,-2.7,87,74,41,30.22,30.10,0,0,0,0.00
2013-2-5,27.9,16.1,5.5,19.3,10.9,-0.5,94,80,64,30.28,29.92,0,0,0,0.00
2013-2-6,27.1,16.2,2.7,23.1,11.5,0.7,98,83,56,30.45,30.27,0,0,0,0.00
2013-2-7,34.2,26.4,18.0,33.9,26.1,17.5,99,99,98,30.35,30.24,2,0,4,0.00
2013-2-8,34.2,20.0,7.0,22.2,15.7,4.7,99,84,55,30.60,30.33,0,0,0,0.00
2013-2-9,30.7,17.6,1.2,26.0,14.7,-0.7,94,88,73,30.59,30.32,0,0,0,0.00
2013-2-10,39.0,31.8,20.8,38.8,30.7,20.0,99,96,86,30.32,29.57,6,1,11,0.67
2013-2-11,38.5,33.4,26.4,38.2,31.4,21.5,99,93,77,30.08,29.52,4,1,10,0.08
2013-2-12,30.7,24.6,21.2,22.4,20.1,18.3,91,83,66,30.19,30.00,0,0,0,0.00
2013-2-13,37.6,29.9,22.8,31.2,26.4,20.1,99,87,71,30.00,29.86,2,0,7,0.00
2013-2-14,33.4,28.5,18.5,32.1,27.1,13.6,99,94,80,30.19,29.82,0,0,2,0.00
2013-2-15,32.0,17.5,6.8,16.8,11.4,4.1,92,78,51,30.36,30.18,1,0,5,0.00
2013-2-16,30.9,12.3,1.8,10.3,3.9,-2.0,89,71,40,30.38,30.30,2,0,8,0.00
2013-2-17,28.4,10.6,-6.9,17.9,1.9,-9.8,89,70,35,30.40,30.19,2,0,5,0.00
2013-2-18,43.7,34.6,22.3,35.9,30.7,18.2,99,86,69,30.20,29.56,4,1,9,0.08
2013-2-19,32.4,30.6,28.8,32.1,30.3,28.5,99,99,99,29.62,29.55,0,0,0,0.00
2013-3-9,40.5,36.8,33.6,35.5,33.9,32.2,99,89,77,30.42,30.05,4,2,8,0.30
2013-3-10,39.6,35.2,32.5,39.3,34.8,32.3,99,98,94,30.10,29.90,4,1,10,0.35
2013-3-11,36.9,33.0,27.5,36.1,32.2,24.4,99,97,88,29.90,29.69,4,0,8,0.13
2013-3-12,35.2,26.9,19.6,26.7,21.9,14.8,95,81,69,30.14,29.84,2,0,4,0.01
2013-3-13,43.2,27.2,19.2,18.6,15.4,7.7,94,66,27,30.46,30.13,4,0,11,0.01
2013-3-14,45.3,28.9,15.3,27.5,18.5,12.4,92,69,35,30.46,30.17,3,1,8,0.00
2013-3-15,44.1,30.6,19.0,29.9,23.5,16.0,96,77,46,30.20,30.09,3,1,8,0.00
2013-3-16,38.7,24.6,17.8,20.2,16.0,11.6,94,72,37,30.31,30.12,3,1,8,0.06
2013-3-17,32.4,19.4,7.0,17.7,10.6,2.0,92,70,47,30.53,30.30,3,0,8,0.00
2013-3-18,39.7,28.4,22.6,30.1,24.0,17.7,99,84,56,30.30,29.70,4,1,9,0.00
2013-3-19,36.7,23.6,14.5,24.1,17.5,7.8,98,79,53,30.10,29.71,3,0,8,0.05
2013-3-20,35.4,19.8,6.4,17.3,10.4,1.7,89,69,40,30.18,30.09,3,0,8,0.00
2013-3-21,40.5,24.6,15.3,21.8,15.7,11.7,90,71,42,30.22,30.14,4,0,9,0.01
2013-3-22,39.0,26.0,10.2,26.0,19.2,7.4,92,76,52,30.29,30.21,3,0,5,0.04
2013-3-23,43.0,31.7,25.0,27.6,24.6,22.3,90,76,50,30.37,30.28,3,0,5,0.00
2013-3-24,40.3,31.3,23.5,28.7,24.4,21.5,93,76,52,30.33,30.09,4,1,10,0.00
2013-3-25,45.5,31.9,23.7,29.7,26.1,22.0,96,80,52,30.30,30.07,5,1,11,0.00
2013-3-26,47.5,34.5,28.4,33.4,29.0,25.5,92,81,55,30.42,30.28,3,0,8,0.00
2013-3-27,54.5,36.1,24.1,29.9,24.7,19.9,91,68,31,30.48,30.40,2,0,6,0.00
2013-3-28,53.1,36.0,23.2,26.9,22.6,19.3,85,63,31,30.52,30.46,3,0,4,0.00
2013-3-29,58.5,38.1,25.0,26.3,22.8,15.0,90,60,23,30.52,30.40,2,0,4,0.00
2013-3-30,43.2,36.3,29.8,39.8,29.9,22.4,99,79,55,30.41,29.97,4,1,8,0.17
2013-3-31,47.3,35.5,26.4,38.6,31.7,21.1,99,87,63,30.07,29.81,4,1,12,0.02
2013-4-1,42.3,28.5,19.0,21.4,16.8,12.0,85,64,37,30.32,30.06,4,1,10,0.00
2013-4-2,44.2,29.5,16.7,21.5,16.4,12.2,84,62,31,30.50,30.30,4,0,9,0.00
2013-4-3,46.9,30.3,19.0,23.4,16.6,5.4,80,61,22,30.68,30.41,2,1,6,0.00
2013-4-4,53.6,39.3,28.9,36.4,27.8,21.1,79,64,48,30.41,30.12,4,1,11,0.00
2013-4-5,41.0,30.6,25.5,26.5,24.2,20.8,88,78,51,30.48,30.27,2,0,8,0.00
2013-4-6,46.9,37.4,29.3,46.0,33.5,24.1,99,86,68,30.39,29.67,5,2,11,0.13
2013-4-7,52.7,39.1,33.3,46.5,34.6,32.1,99,86,49,30.23,29.66,3,1,7,0.08
2013-4-8,38.8,35.8,33.3,38.6,35.0,32.5,99,97,88,30.25,30.01,3,1,6,0.14
2013-4-9,38.7,34.9,30.7,38.4,34.2,27.8,99,97,89,30.36,30.23,4,1,9,0.25
2013-4-10,44.6,35.2,29.8,34.8,30.7,25.7,99,84,67,30.40,30.26,3,1,8,0.15
2013-4-11,36.9,32.7,29.3,30.7,28.9,26.0,99,86,73,30.29,29.92,7,2,17,0.02
2013-4-12,38.5,32.1,27.0,35.4,31.2,26.7,99,96,86,29.96,29.82,4,0,9,0.02
2013-4-13,46.9,35.1,26.8,34.6,30.9,26.5,99,86,57,30.18,29.91,3,0,6,0.27
2013-4-14,47.1,33.8,21.2,33.9,28.9,21.0,99,84,52,30.27,29.95,4,1,8,0.02
2013-4-15,62.2,45.3,34.0,50.4,39.0,29.7,99,81,50,30.13,29.85,4,1,10,0.12
2013-4-16,57.0,41.8,31.6,37.5,31.8,28.8,92,71,39,30.58,30.12,3,1,8,0.00
2013-4-17,45.9,37.5,28.6,37.4,33.3,26.8,99,85,62,30.61,30.19,4,1,8,0.01
2013-4-18,47.5,38.9,35.4,47.2,38.6,35.2,99,99,93,30.19,29.47,4,1,11,0.26
2013-4-19,46.6,36.1,25.3,46.1,29.9,16.7,99,79,54,30.02,29.38,5,2,12,0.01
2013-4-20,46.8,31.7,22.6,24.9,19.1,8.6,87,64,24,30.63,30.02,4,1,12,0.00
2013-4-21,48.4,37.0,26.1,34.2,28.1,20.5,94,73,41,30.74,30.47,5,2,9,0.00
2013-4-22,56.3,42.8,38.3,43.1,38.3,32.2,98,85,57,30.48,30.27,4,1,9,0.09
2013-4-23,48.0,40.0,33.8,47.3,36.8,30.9,99,89,78,30.28,30.05,3,0,6,0.08
2013-4-24,58.8,41.3,28.2,32.4,27.0,16.0,99,64,23,30.21,30.12,4,0,7,0.00
2013-4-25,43.5,40.3,34.2,37.2,34.5,32.2,94,80,66,30.15,30.06,4,1,9,0.00
2013-5-2,35.6,35.5,35.4,34.3,34.0,33.9,95,94,94,30.50,30.46,3,2,8,0.04
2013-5-3,55.9,42.6,34.5,43.9,38.6,34.1,99,87,61,30.50,30.30,5,1,9,0.13
2013-5-4,56.3,43.5,39.2,47.0,41.0,38.3,99,92,66,30.33,29.22,2,0,4,4.36
2013-5-31,71.6,63.2,55.2,64.7,59.5,54.1,99,88,77,29.96,29.92,2,1,6,0.00
2013-6-1,77.4,63.5,49.8,69.5,61.8,49.4,99,95,71,29.94,29.82,2,0,5,0.38
2013-6-2,68.0,49.1,42.4,49.4,44.3,41.2,99,85,48,30.27,29.91,2,0,9,0.19
2013-6-3,72.1,52.5,41.5,51.1,45.2,37.3,99,80,37,30.37,30.23,2,0,4,0.00
2013-6-4,58.1,50.6,42.6,45.9,41.5,31.7,99,74,39,30.47,30.35,2,0,3,0.00
2013-6-5,60.4,51.7,47.3,52.2,47.9,39.8,95,87,71,30.43,30.27,2,0,3,0.00
2013-6-6,60.1,52.2,47.8,51.9,48.5,46.4,99,88,66,30.27,30.21,2,0,3,0.12
2013-6-7,79.9,58.0,49.6,50.7,47.8,41.7,99,73,31,30.25,30.15,2,0,4,0.00
2013-6-8,75.9,59.4,50.4,55.0,48.8,44.3,88,71,40,30.28,30.14,1,0,3,0.00
2013-6-9,72.9,61.5,50.5,60.0,54.6,45.9,92,79,63,30.30,30.14,2,1,4,0.00
2013-6-10,77.9,64.6,55.4,63.4,58.2,52.7,99,81,54,30.14,30.03,2,1,3,0.00
2013-6-11,88.7,65.0,52.9,67.6,59.6,52.6,99,85,48,30.13,30.01,2,0,4,0.00
2013-6-12,76.8,65.2,55.8,63.8,57.2,51.4,99,78,48,30.15,29.95,2,0,2,0.00
2013-6-13,79.3,63.1,56.5,56.1,54.4,52.6,91,75,44,30.32,30.00,2,0,8,0.00
2013-6-14,84.6,60.9,51.6,53.3,44.6,31.2,90,61,20,30.39,30.23,1,0,3,0.00
2013-6-15,69.3,60.5,55.0,64.5,53.7,37.4,99,80,49,30.25,30.00,2,0,4,0.66
2013-6-16,86.2,66.3,58.6,67.7,61.6,58.0,99,87,47,30.15,30.00,2,0,5,0.06
2013-6-17,68.0,60.4,51.4,61.6,57.0,47.8,99,89,72,30.28,30.06,2,0,4,0.17
2013-6-18,77.9,57.5,48.6,54.6,47.2,36.4,96,73,28,30.37,30.27,2,0,5,0.00
2013-6-19,80.4,61.5,49.3,52.7,47.9,42.2,94,64,37,30.40,30.30,2,0,4,0.00
2013-6-20,83.3,68.6,57.0,63.5,54.8,44.8,75,63,45,30.37,30.30,2,0,4,0.00
2013-6-21,81.9,67.0,59.0,71.8,63.4,55.1,99,89,61,30.36,30.01,4,1,8,0.01
2013-6-22,68.4,63.7,59.0,65.7,62.5,58.7,99,96,87,30.32,30.16,3,0,7,0.00
2013-6-23,80.8,69.6,59.0,72.8,66.9,58.7,99,92,67,30.23,30.06,2,0,5,0.00
2013-6-24,88.7,74.9,68.7,75.0,70.8,66.9,99,88,63,30.19,30.05,1,0,4,0.00
2013-6-25,88.0,73.2,66.9,71.7,69.5,66.3,99,90,54,30.09,30.02,1,0,4,0.00
2013-6-26,83.7,71.8,65.1,72.4,68.0,64.2,99,89,66,30.04,29.94,2,0,4,0.00
2013-6-27,77.5,67.1,61.9,71.4,65.7,61.6,99,96,79,30.03,29.88,2,0,4,0.00
2013-6-28,73.8,66.0,60.6,68.2,64.2,60.3,99,94,78,29.91,29.84,2,0,4,0.19
2013-6-29,77.2,65.4,60.4,63.6,59.5,51.1,99,83,56,30.10,29.88,2,0,8,0.00
2013-6-30,86.4,67.2,59.0,56.8,51.6,44.4,83,61,31,30.30,30.09,2,0,6,0.00
2013-7-1,81.5,66.2,56.7,62.2,54.4,45.9,82,67,43,30.40,30.30,2,0,4,0.00
2013-7-2,78.3,64.2,53.4,59.1,50.8,36.3,94,67,29,30.41,30.32,2,0,4,0.00
2013-7-3,75.4,65.9,59.5,60.4,56.1,51.5,91,72,50,30.35,30.25,1,0,4,0.00
2013-7-4,83.1,69.9,62.4,68.0,63.0,57.6,99,80,56,30.29,30.21,2,0,4,0.00
2013-7-5,87.3,74.1,65.1,68.9,64.7,60.2,93,74,52,30.27,30.19,2,0,5,0.00
2013-7-6,90.9,76.6,71.1,70.4,65.0,62.0,80,69,43,30.24,30.16,2,0,5,0.00
2013-7-7,87.3,76.3,71.1,74.5,70.2,65.0,93,82,65,30.19,30.12,2,0,3,0.00
2013-7-8,81.0,69.6,64.9,72.7,68.3,64.2,99,96,74,30.23,30.10,3,1,5,0.00
2013-7-9,75.0,68.5,64.8,71.8,67.6,64.5,99,97,88,30.24,29.94,3,0,4,0.00
2013-7-10,77.7,69.4,62.8,70.2,63.5,59.3,99,83,56,30.22,29.97,2,0,4,0.00
2013-7-11,84.6,67.4,60.6,64.2,59.3,53.2,96,77,49,30.36,30.22,1,0,4,0.00
2013-7-12,87.6,68.8,58.1,66.4,57.8,48.1,98,70,39,30.40,30.31,1,0,2,0.00
2013-7-13,86.0,71.6,62.8,69.7,63.4,57.7,99,77,55,30.40,30.30,2,0,5,0.00
2013-7-14,89.8,74.0,65.7,73.4,67.1,58.5,95,80,54,30.48,30.39,2,0,3,0.00
2013-7-15,90.9,76.2,66.7,74.4,69.3,64.3,99,81,54,30.53,30.45,1,0,2,0.00
2013-7-16,88.3,78.9,71.1,79.7,74.2,65.7,95,86,71,30.49,30.39,1,0,4,0.00
2013-7-17,87.8,79.2,74.5,79.4,76.6,74.2,99,92,75,30.46,30.34,1,0,2,0.00
2013-7-18,95.4,82.6,74.5,79.7,76.1,74.2,99,83,57,30.35,30.01,2,0,6,0.00
2013-7-19,90.3,79.5,68.2,76.7,72.5,66.2,96,80,55,30.03,29.89,2,0,8,0.00
2013-7-20,80.4,67.1,57.6,66.9,57.4,50.6,99,73,41,30.26,30.01,2,0,6,1.11
2013-7-21,68.4,61.9,55.0,59.7,56.5,49.1,95,83,72,30.29,30.14,1,0,2,0.00
2013-7-22,84.4,70.6,59.2,73.8,67.2,58.3,99,90,69,30.16,29.81,2,0,6,0.00
2013-7-23,73.2,65.0,60.3,66.4,54.6,48.6,80,70,54,30.23,29.91,2,0,8,0.00
2013-7-24,76.3,63.5,54.1,57.1,53.9,49.0,91,73,50,30.31,30.23,3,0,5,0.00
2013-7-25,78.6,67.9,59.4,64.2,60.0,54.8,94,77,53,30.27,30.14,2,0,6,0.00
2013-7-26,70.0,63.7,55.4,67.0,62.8,55.1,99,97,87,30.17,30.03,2,0,4,0.87
2013-7-27,64.2,56.3,51.6,55.1,51.7,49.2,99,85,66,30.14,30.03,2,0,5,0.00
2013-7-28,56.5,54.8,52.0,56.0,54.0,51.7,99,97,89,30.17,30.01,2,0,6,0.43
2013-7-29,74.1,60.4,53.6,63.8,56.7,52.6,99,88,63,30.40,30.17,2,0,4,0.01
2013-7-30,75.4,63.9,56.1,64.1,58.7,55.0,99,84,63,30.43,30.31,2,0,4,0.00
2013-7-31,77.4,67.5,61.5,70.6,64.4,57.6,99,90,78,30.32,30.12,1,0,5,0.00
2013-8-1,77.0,64.7,59.2,63.8,60.8,58.3,99,88,58,30.16,30.09,1,0,4,0.02
2013-8-2,78.8,66.1,58.8,66.0,61.6,57.8,99,87,59,30.18,30.04,1,0,4,0.13
2013-8-3,76.3,64.0,57.4,62.2,58.6,56.5,98,84,59,30.38,30.18,2,0,4,0.00
2013-8-4,70.2,62.0,55.9,58.1,55.7,50.8,98,81,56,30.47,30.33,2,0,4,0.00
2013-8-5,66.7,61.1,54.0,65.9,58.5,49.6,99,91,71,30.34,30.08,2,0,3,0.01
2013-8-6,77.4,68.1,61.0,71.3,66.1,60.7,99,94,77,30.09,29.95,1,0,4,0.00
2013-8-7,74.3,65.1,57.9,67.5,63.3,57.6,99,94,76,30.25,29.86,2,0,5,0.58
2013-8-8,76.5,63.2,53.8,62.9,57.8,53.3,99,84,59,30.29,30.20,1,0,3,0.01
2013-8-9,79.5,66.5,57.2,65.1,58.8,53.8,95,78,51,30.29,30.16,2,0,4,0.00
2013-8-10,77.7,65.1,58.6,62.0,59.6,55.6,99,84,54,30.38,30.29,2,0,3,0.00
2013-8-11,79.5,66.2,61.0,65.0,61.5,58.8,99,86,53,30.33,30.24,1,0,3,0.00
2013-8-12,74.5,64.0,56.1,68.0,61.5,49.0,99,92,74,30.26,30.12,2,0,6,0.01
2013-8-13,66.2,58.3,54.5,56.4,51.5,46.5,91,79,61,30.39,30.25,2,0,6,0.00
2013-8-14,68.5,59.2,51.8,55.9,52.3,47.8,98,79,57,30.45,30.33,1,0,4,0.00
2013-8-15,79.7,64.1,54.3,61.8,57.2,53.3,99,81,49,30.35,30.28,1,0,4,0.00
2013-8-16,80.8,67.4,59.0,67.1,59.6,53.9,99,79,46,30.42,30.32,2,0,3,0.00
2013-8-17,82.2,69.1,60.1,66.9,58.1,50.3,91,70,48,30.48,30.38,1,0,4,0.00
2013-8-18,80.1,69.0,60.8,66.4,59.9,50.6,92,74,58,30.43,30.29,1,0,4,0.00
2013-8-19,83.7,71.9,63.9,66.2,63.5,59.5,98,77,53,30.30,30.19,2,0,6,0.00
2013-8-20,86.0,74.8,68.4,71.8,67.8,64.1,92,80,62,30.27,30.19,2,0,4,0.00
2013-8-21,87.8,76.4,65.7,76.1,69.8,65.4,99,81,67,30.22,30.07,3,0,8,0.35
2013-8-22,80.1,68.8,60.4,68.6,63.0,55.7,99,84,48,30.38,30.18,2,0,3,0.01
2013-8-23,77.2,66.0,58.8,65.5,60.2,55.2,99,83,59,30.46,30.38,2,0,3,0.00
2013-8-24,80.1,68.7,59.4,67.6,62.3,58.2,99,82,62,30.49,30.36,2,0,4,0.00
2013-8-25,89.4,78.9,69.3,75.5,70.5,62.9,87,76,64,30.37,30.20,3,0,10,0.00
2013-8-26,83.3,75.0,69.3,75.2,71.3,69.0,99,89,76,30.29,30.11,3,0,8,0.24
2013-8-27,75.7,71.1,68.9,75.4,70.7,68.6,99,99,93,30.20,30.05,2,0,4,0.64
2013-8-28,81.7,72.1,68.2,72.6,69.8,67.9,99,93,66,30.28,30.11,1,0,3,0.01
2013-8-29,82.2,73.7,66.9,75.7,70.8,66.6,99,91,75,30.31,30.17,1,0,2,0.00
2013-8-30,78.8,72.1,65.3,75.5,69.4,64.6,99,92,78,30.20,30.01,2,0,5,0.04
2013-8-31,73.8,67.7,63.3,69.2,66.2,63.0,99,95,84,30.14,30.03,1,0,3,0.00
2013-9-1,77.4,68.5,63.3,73.3,66.9,60.9,99,95,77,30.06,29.93,2,0,5,0.00
2013-9-2,63.7,60.1,56.3,60.9,54.9,51.5,94,83,74,30.23,30.06,2,0,7,0.00
2013-9-3,71.6,66.1,56.7,61.7,58.6,53.1,92,78,64,30.26,30.17,2,0,5,0.00
2013-9-4,67.5,62.2,54.5,61.6,58.0,48.0,95,86,75,30.42,30.18,2,0,4,0.00
2013-9-5,66.2,57.9,50.7,55.5,50.7,46.1,89,78,61,30.55,30.42,2,0,3,0.00
2013-9-6,75.6,65.0,53.4,68.7,60.0,50.7,95,85,65,30.45,30.15,2,0,4,0.00
2013-9-7,82.6,71.7,62.2,72.3,67.6,61.4,97,87,70,30.29,30.10,2,0,7,0.00
2013-9-8,70.2,63.4,57.2,61.4,57.5,53.1,99,83,58,30.38,30.22,2,0,3,0.00
2013-9-9,81.3,67.6,62.4,76.6,66.7,61.1,99,97,81,30.24,29.91,2,0,7,0.00
2013-9-10,86.4,77.2,66.7,74.6,70.9,66.4,99,82,68,30.19,29.92,2,0,7,0.22
2013-9-11,77.9,70.2,64.0,71.1,67.3,61.7,99,91,77,30.22,30.12,1,0,4,0.00
2013-9-12,66.2,60.4,52.7,62.0,55.8,47.0,96,85,73,30.37,30.17,2,0,8,0.00
2013-9-13,59.9,52.9,47.1,48.9,45.0,41.8,92,76,59,30.46,30.36,2,0,7,0.00
2013-9-14,67.3,57.6,47.1,55.7,51.4,44.9,99,81,59,30.38,30.20,2,0,4,0.00
2013-9-15,62.8,56.6,49.1,60.0,53.6,43.6,99,90,71,30.50,30.18,2,0,8,0.22
2013-9-16,57.2,51.1,45.9,47.8,44.9,41.9,90,80,64,30.66,30.50,2,0,4,0.00
2013-9-17,63.5,54.8,45.0,56.3,51.3,41.2,99,89,72,30.59,30.34,2,0,4,0.00
2013-9-18,68.4,62.9,56.3,66.6,62.2,54.6,99,98,92,30.34,30.11,2,0,4,0.20
2013-9-19,78.6,68.6,64.2,74.7,67.8,63.9,99,97,86,30.13,29.92,2,1,5,0.05
2013-9-20,70.5,66.8,58.8,69.1,64.9,53.6,99,94,82,30.00,29.88,1,0,4,0.01
2013-9-21,58.8,53.9,49.5,53.7,47.6,40.0,94,80,66,30.20,29.99,2,0,6,0.00
2013-9-22,54.1,50.1,47.1,45.8,44.0,40.6,91,80,69,30.34,30.19,1,0,4,0.00
2013-9-23,59.0,51.2,43.5,51.0,47.6,42.7,99,88,72,30.40,30.32,2,0,2,0.00
2013-9-24,65.5,55.8,47.8,59.2,53.4,47.6,99,92,76,30.35,30.24,2,0,2,0.00
2013-9-25,65.8,56.9,50.0,60.4,54.7,49.7,99,93,75,30.27,30.22,1,0,2,0.00
2013-9-26,69.6,58.6,51.6,62.7,55.8,51.3,99,92,62,30.35,30.25,1,0,3,0.00
2013-9-27,73.2,63.3,55.8,65.1,58.6,51.7,99,86,66,30.40,30.31,2,0,3,0.00
2013-9-28,70.9,64.6,58.5,64.0,60.7,57.1,99,88,72,30.31,30.02,3,1,8,0.32
2013-9-29,65.5,57.1,52.0,58.0,53.6,50.7,99,89,64,30.27,30.11,1,0,3,0.00
2013-9-30,68.5,59.5,52.0,57.7,51.8,44.9,92,77,57,30.22,30.03,2,0,7,0.00
2013-10-1,76.3,65.8,58.3,63.9,59.1,54.0,94,80,65,30.14,29.96,2,0,9,0.00
2013-10-2,71.4,60.1,52.0,56.0,50.2,40.4,92,73,37,30.32,30.14,2,0,3,0.00
2013-10-3,68.2,59.8,54.0,61.0,56.5,52.2,99,89,75,30.24,30.12,2,0,4,0.00
2013-10-4,59.0,57.7,56.3,58.7,57.4,56.0,99,99,99,30.29,30.13,2,0,6,0.25
2013-10-5,62.6,59.4,57.6,62.3,59.1,57.3,99,99,99,30.27,29.95,4,2,8,0.80
2013-10-6,62.8,58.4,53.6,62.5,56.0,48.7,99,92,76,29.96,29.85,2,0,5,0.18
2013-10-7,61.9,53.6,45.7,52.2,49.0,44.1,99,85,64,30.29,29.84,2,0,5,0.01
2013-10-8,66.7,57.9,45.7,59.6,54.3,44.1,99,89,70,30.37,30.29,3,1,5,0.00
2013-10-9,70.7,61.9,54.9,59.6,54.9,50.8,92,79,62,30.43,30.32,2,0,4,0.00
2013-10-10,69.1,57.9,50.2,60.7,55.1,49.9,99,91,69,30.42,30.30,1,0,3,0.00
2013-10-11,68.4,59.5,53.1,61.5,55.6,51.9,99,88,63,30.33,30.19,2,1,4,0.00
2013-10-12,67.6,60.9,54.5,62.9,58.0,46.6,99,91,75,30.28,30.09,4,1,8,0.02
2013-10-13,58.6,51.8,43.5,49.7,45.8,41.9,94,81,61,30.63,30.28,2,0,8,0.00
2013-10-14,57.7,49.6,43.2,49.8,45.8,42.3,99,87,71,30.67,30.43,2,0,3,0.00
2013-10-15,56.1,54.0,50.5,55.8,52.7,47.6,99,96,87,30.44,29.91,3,1,6,0.32
2013-10-16,52.5,49.5,46.6,52.1,47.5,41.3,99,93,82,30.12,29.90,2,0,6,0.11
2013-10-17,51.3,45.3,39.2,42.6,41.0,38.1,98,86,66,30.12,29.98,2,0,3,0.01
2013-10-18,52.5,46.8,42.1,50.1,45.9,41.8,99,97,86,30.09,29.97,1,0,4,0.07
2013-10-19,52.5,45.1,38.7,45.0,40.3,35.3,99,85,56,30.07,29.90,2,0,6,0.01
2013-10-20,48.6,43.9,41.0,45.6,40.6,37.5,99,89,72,30.04,29.86,1,0,5,0.12
2013-10-21,45.7,40.7,35.6,45.4,35.9,26.5,99,84,65,30.04,29.86,3,1,12,0.04
2013-10-22,47.7,40.6,36.7,36.7,33.6,27.3,91,77,57,30.15,29.96,4,1,11,0.00
2013-10-23,47.1,39.3,36.1,34.5,30.9,27.4,85,73,53,30.15,30.08,2,0,8,0.00
2013-10-24,46.4,39.6,36.0,35.2,32.9,28.8,87,77,54,30.42,30.14,2,0,10,0.00
2013-10-25,49.5,42.0,36.0,39.0,33.6,29.3,92,73,57,30.48,29.89,4,1,10,0.00
2013-10-26,50.4,45.9,40.8,43.2,34.9,27.4,78,66,55,30.22,29.83,5,1,12,0.00
2013-10-27,50.0,44.5,39.0,39.5,35.1,30.1,82,70,59,30.30,30.05,3,0,11,0.00
2013-10-28,44.2,36.6,30.9,37.7,28.6,24.7,90,73,55,30.68,30.29,3,0,10,0.00
2013-10-29,43.5,37.8,31.3,39.6,33.7,26.4,95,85,73,30.69,30.40,2,0,3,0.00
2013-10-30,54.0,48.4,41.9,52.6,47.4,39.5,99,97,88,30.41,29.97,2,1,5,0.08
2013-10-31,56.5,53.5,52.0,56.2,53.2,51.7,99,99,99,29.99,29.32,2,0,3,0.60
2013-11-1,52.2,47.1,43.3,51.9,45.1,41.2,99,93,84,29.93,29.32,3,0,9,0.47
2013-11-2,44.1,40.4,32.7,41.2,37.7,32.5,99,90,76,30.37,29.92,2,0,7,0.08
2013-11-3,47.8,40.0,31.6,42.6,37.1,31.4,99,90,74,30.53,30.37,3,1,6,0.01
2013-11-4,51.4,47.8,44.1,47.5,43.9,40.4,92,86,77,30.49,30.27,4,2,11,0.00
2013-11-5,55.9,48.8,41.5,49.9,45.2,39.9,99,88,61,30.48,30.10,3,0,7,0.79
2013-11-6,49.6,41.2,35.1,49.4,39.3,28.6,99,93,77,30.27,29.93,4,1,13,0.31
2013-11-7,42.3,36.5,34.2,32.1,29.7,27.4,88,76,63,30.35,30.27,3,1,11,0.00
2013-11-8,45.9,39.0,34.0,41.0,32.0,26.2,92,76,52,30.44,30.07,2,0,8,0.00
2013-11-9,47.1,43.3,40.3,45.0,40.0,34.8,99,88,76,30.12,29.86,5,2,15,0.35
2013-11-10,49.5,42.2,38.8,37.3,34.2,31.3,86,74,54,30.43,30.11,4,1,15,0.00
2013-11-11,41.0,31.5,25.9,38.0,23.3,14.0,95,73,51,30.70,30.21,5,2,17,0.02
2013-11-12,34.9,27.2,23.9,18.7,16.9,13.4,77,65,50,30.83,30.65,4,1,12,0.00
2013-11-13,42.4,34.3,25.2,31.5,24.6,17.8,85,69,51,30.66,30.12,6,2,17,0.00
2013-11-14,44.6,40.2,35.6,37.5,31.6,26.1,91,72,58,30.13,30.02,4,1,10,0.01
2013-11-15,52.2,41.9,36.3,42.4,37.9,34.0,99,86,67,30.11,30.03,2,0,5,0.00
2013-11-16,51.6,45.4,36.9,51.3,44.9,35.8,99,98,94,30.09,29.64,6,2,14,0.28
2013-11-17,55.4,49.1,41.5,55.1,48.5,37.5,99,98,86,29.67,29.34,4,1,15,0.48
2013-11-18,41.7,35.3,30.6,37.8,27.8,22.8,87,74,64,30.41,29.65,4,2,15,0.01
2013-11-19,40.1,32.2,25.3,34.6,25.7,20.7,96,78,57,30.58,30.40,3,0,7,0.00
2013-11-20,78.6,40.7,23.5,60.9,36.1,33.6,97,86,56,30.47,30.33,175,3,175,23.70
2013-11-21,41.4,38.9,33.4,40.4,38.2,33.2,99,97,93,30.47,30.34,3,0,7,0.07
2013-11-22,36.9,31.0,27.5,33.0,25.2,17.7,99,80,62,30.63,30.47,4,0,14,0.00
2013-11-23,27.5,18.1,14.4,20.3,8.8,3.4,81,67,53,30.84,30.53,5,2,18,0.00
2013-11-24,27.5,19.5,14.5,16.7,9.4,3.3,80,65,48,30.81,30.27,5,1,17,0.00
2013-11-25,35.1,31.2,27.3,31.4,25.1,15.7,91,78,59,30.28,30.07,6,2,14,0.00
2013-11-26,34.9,26.1,15.8,31.6,20.0,7.7,98,78,54,30.16,29.77,5,1,13,0.00
2013-11-27,28.9,22.3,16.2,20.5,16.5,11.7,94,79,56,30.41,29.93,4,1,11,0.00
2013-11-28,28.4,23.9,20.8,24.2,21.5,17.8,99,90,77,30.65,30.38,3,0,8,0.00
2013-11-29,35.6,26.0,16.2,29.1,22.7,15.7,99,88,66,30.79,30.53,2,0,4,0.00
2013-11-30,39.2,33.6,30.0,31.5,28.8,25.9,93,83,70,30.54,30.22,3,0,8,0.01
2013-12-1,38.1,33.9,30.7,34.4,31.1,28.4,98,89,77,30.34,30.20,2,0,6,0.04
2013-12-2,42.6,32.9,25.5,31.9,27.9,22.8,94,83,54,30.20,30.07,2,0,3,0.02
2013-12-3,35.6,32.8,31.3,32.5,31.1,28.9,99,93,81,30.11,30.04,3,1,9,0.00
2013-12-4,46.4,37.8,32.7,46.1,37.5,32.5,99,99,99,30.07,29.57,4,1,9,0.37
2013-12-5,39.6,23.7,11.7,38.9,18.3,6.8,99,80,65,30.37,29.64,5,2,15,0.01
2013-12-6,18.5,11.8,7.5,9.7,6.7,4.7,89,80,62,30.66,30.37,4,1,9,0.00
2013-12-7,15.8,9.4,5.4,6.7,4.0,-0.3,92,79,59,30.81,30.64,4,1,11,0.00
2013-12-8,22.6,11.9,3.0,22.2,8.7,-1.3,98,87,76,30.76,30.17,3,0,7,0.00
2013-12-9,22.8,15.3,1.8,22.6,11.8,-2.7,99,86,70,30.28,30.02,6,1,17,0.00
2013-12-10,14.4,7.3,1.4,6.5,2.3,-3.5,91,79,66,30.35,30.02,4,1,14,0.00
2013-12-11,12.9,5.7,-0.4,2.9,-1.2,-5.1,85,73,55,30.61,30.35,4,1,13,0.00
2013-12-12,16.5,9.7,0.0,9.8,4.5,-4.3,91,79,70,30.58,30.30,3,1,10,0.00
2013-12-13,17.6,15.1,12.9,11.1,8.1,4.9,83,73,65,30.54,30.32,3,1,8,0.00
2013-12-14,24.4,20.3,15.1,22.0,18.0,10.4,97,90,78,30.53,30.06,3,0,7,0.00
2013-12-15,19.8,14.4,8.2,19.1,8.9,4.4,97,79,58,30.25,30.00,4,1,11,0.00
2013-12-16,23.2,14.2,7.5,16.4,11.0,5.7,94,87,72,30.31,30.10,3,1,11,0.00
2013-12-17,26.8,19.1,12.4,23.5,16.2,10.0,96,88,72,30.17,30.01,2,0,6,0.00
2013-12-18,26.1,19.6,9.5,23.0,14.4,5.2,92,80,56,30.25,29.91,3,0,7,0.00
2013-12-19,28.6,21.9,14.2,24.6,18.6,12.1,96,87,77,30.29,29.92,4,1,8,0.00
2013-12-20,28.2,22.2,19.2,25.3,20.9,18.0,99,95,88,30.21,29.65,4,1,8,0.00
2013-12-21,29.5,26.0,23.5,27.0,24.5,22.9,99,94,84,30.17,29.64,3,0,7,0.00
2013-12-22,27.1,23.0,20.3,25.5,21.6,18.4,99,94,85,30.29,30.01,4,1,8,0.00
2013-12-23,25.2,19.0,13.1,20.5,15.8,8.8,97,87,71,30.56,30.29,2,0,4,0.00
2013-12-24,21.0,9.2,0.7,11.0,4.6,-1.5,92,81,60,30.68,30.47,2,0,4,0.00
2013-12-25,17.2,15.1,10.2,15.5,12.6,6.4,95,89,81,30.48,30.20,2,0,6,0.00
2013-12-26,18.3,12.6,2.8,15.2,9.1,1.1,96,86,70,30.42,30.19,2,0,5,0.00
2013-12-27,33.6,23.4,9.5,29.3,20.2,6.7,94,88,77,30.43,30.08,3,1,11,0.00
2013-12-28,43.2,30.2,22.3,35.0,28.0,22.0,99,92,71,30.19,29.94,2,0,5,0.00
2013-12-29,30.0,15.2,-0.8,29.8,9.5,-5.8,99,78,61,30.37,29.91,4,1,15,0.00
2013-12-30,2.5,-1.8,-9.8,-5.1,-7.8,-13.5,85,75,66,30.48,30.30,2,0,6,0.00
2013-12-31,8.1,-0.5,-5.8,-3.7,-7.6,-12.0,82,71,54,30.58,30.29,3,1,9,0.00
2014-1-1,12.6,3.9,-6.2,3.3,-2.4,-11.6,81,74,63,30.65,30.55,3,1,8,0.00
2014-1-2,16.5,6.1,-4.9,3.8,-0.7,-9.5,85,73,56,30.59,30.50,3,1,8,0.00